{"data":{"norad_id":64081,"epoch":"2026-09-20T04:14:59.172000Z","epoch_age_seconds":171497,"freshness":"FRESH","line1":"1 64081U 25107T   26263.17707375  .00011359  00000+0  42150-3 0  9993","line2":"2 64081  43.0055 183.2817 0001875 255.0200 105.0444 15.27592539 75865","mean_motion":15.27592539,"eccentricity":0.0001875,"inclination_deg":43.0055,"raan_deg":183.2817,"arg_perigee_deg":255.02,"mean_anomaly_deg":105.0444,"bstar":0.0004215,"rev_number":7586,"period_min":94.265974940062,"perigee_km":481.72508466647,"apogee_km":484.29801537273,"semimajor_km":6861.1485500196,"source":"CELESTRAK","updated_at":"2026-09-21T09:00:35.195290Z"}}